GW1618 Weather Reports


Display with metric or nautical units.
time (UTC)temp
F
wind
direction
speed
MPH
gust
MPH
rain 1hr
in
rain 24hr
in
rain mn
in
humidity
%
barometer
mb
20260906203330 68 359 3.0 4.0 0.00 0.00 0.00 53 1014.9
20260906203119 67 349 3.0 5.0 0.00 0.00 0.00 54 1014.9
20260906202620 67 359 4.0 6.0 0.00 0.00 0.00 54 1015.0
20260906201832 67 19 4.0 6.0 0.00 0.00 0.00 56 1015.0
20260906201331 66 9 5.0 6.0 0.00 0.00 0.00 56 1015.0
20260906200826 66 359 5.0 7.0 0.00 0.00 0.00 57 1015.1
20260906200321 66 359 5.0 7.0 0.00 0.00 0.00 57 1015.1
20260906200117 66 9 6.0 7.0 0.00 0.00 0.00 57 1015.1
20260906195320 66 15 5.0 7.0 0.00 0.00 0.00 57 1015.3
20260906195117 66 359 5.0 9.0 0.00 0.00 0.00 59 1015.3
20260906194318 65 30 5.0 9.0 0.00 0.00 0.00 59 1015.3
20260906193817 65 9 5.0 9.0 0.00 0.00 0.00 58 1015.4
20260906193318 65 13 4.0 7.0 0.00 0.00 0.00 60 1015.4
20260906193120 65 17 3.0 6.0 0.00 0.00 0.00 60 1015.4
20260906192346 65 20 3.0 6.0 0.00 0.00 0.00 61 1015.5
20260906191310 65 352 3.0 6.0 0.00 0.00 0.00 63 1015.5
20260906190812 64 20 4.0 7.0 0.00 0.00 0.00 62 1015.6
20260906190312 64 4 4.0 7.0 0.00 0.00 0.00 64 1015.6
20260906185808 64 15 4.0 7.0 0.00 0.00 0.00 64 1015.6
20260906185309 64 37 4.0 6.0 0.00 0.00 0.00 64 1015.6
20260906184809 63 359 4.0 6.0 0.00 0.00 0.00 66 1015.6
20260906184306 63 14 4.0 6.0 0.00 0.00 0.00 67 1015.6
20260906183808 63 9 5.0 6.0 0.00 0.00 0.00 67 1015.7
20260906183608 63 9 5.0 6.0 0.00 0.00 0.00 67 1015.7
20260906182803 62 23 5.0 6.0 0.00 0.00 0.00 69 1015.7
20260906182306 62 359 5.0 6.0 0.00 0.00 0.00 68 1015.6
20260906181756 62 13 5.0 6.0 0.00 0.00 0.00 68 1015.6
20260906181244 62 9 4.0 6.0 0.00 0.00 0.00 68 1015.6
20260906180745 62 19 3.0 6.0 0.00 0.00 0.00 70 1015.5
20260906180240 62 16 4.0 6.0 0.00 0.00 0.00 70 1015.5
20260906175733 62 4 4.0 6.0 0.00 0.00 0.00 70 1015.5
20260906175534 62 355 3.0 5.0 0.00 0.00 0.00 70 1015.7
20260906174732 61 327 3.0 5.0 0.00 0.00 0.00 72 1015.7
20260906174235 61 331 3.0 5.0 0.00 0.00 0.00 72 1015.7
20260906174039 61 328 3.0 4.0 0.00 0.00 0.00 74 1015.8
20260906173233 61 330 2.0 4.0 0.00 0.00 0.00 73 1015.8
20260906172731 60 331 2.0 4.0 0.00 0.00 0.00 75 1015.8
20260906172232 60 4 3.0 4.0 0.00 0.00 0.00 76 1015.9
20260906171732 60 351 3.0 5.0 0.00 0.00 0.00 76 1015.9
20260906171231 59 23 4.0 5.0 0.00 0.00 0.00 77 1015.9
20260906170736 59 13 3.0 5.0 0.00 0.00 0.00 77 1016.0
20260906170538 59 333 3.0 4.0 0.00 0.00 0.00 77 1016.0
20260906165730 59 4 3.0 5.0 0.00 0.00 0.00 77 1016.0
20260906165233 58 4 4.0 5.0 0.00 0.00 0.00 78 1016.0
20260906165037 58 9 4.0 6.0 0.00 0.00 0.00 78 1016.0
20260906164229 58 23 4.0 6.0 0.00 0.00 0.00 78 1016.0
20260906163730 58 4 3.0 5.0 0.00 0.00 0.00 78 1016.0
20260906163231 58 15 3.0 5.0 0.00 0.00 0.00 78 1016.0
20260906162722 58 9 3.0 5.0 0.00 0.00 0.00 78 1016.0
20260906162219 58 19 2.0 4.0 0.00 0.00 0.00 78 1016.0
20260906162015 58 34 2.0 4.0 0.00 0.00 0.00 79 1016.0
20260906161215 58 4 2.0 3.0 0.00 0.00 0.00 80 1016.0
20260906161008 57 61 1.0 3.0 0.00 0.00 0.00 81 1015.8
20260906160206 57 38 1.0 2.0 0.00 0.00 0.00 82 1015.8
20260906155705 56 38 1.0 3.0 0.00 0.00 0.00 83 1015.8
20260906155206 56 62 2.0 3.0 0.00 0.00 0.00 84 1015.7
20260906154704 56 47 2.0 3.0 0.00 0.00 0.00 84 1015.7
20260906154452 56 27 1.0 3.0 0.00 0.00 0.00 86 1015.7
20260906153658 55 359 1.0 3.0 0.00 0.00 0.00 87 1015.6
20260906153158 55 45 1.0 3.0 0.00 0.00 0.00 88 1015.6
20260906152649 54 9 2.0 4.0 0.00 0.00 0.00 88 1015.6
20260906152145 54 61 2.0 4.0 0.00 0.00 0.00 89 1015.5
20260906151651 54 17 2.0 4.0 0.00 0.00 0.00 90 1015.5
20260906151146 54 36 2.0 4.0 0.00 0.00 0.00 90 1015.5
20260906150644 53 9 1.0 3.0 0.00 0.00 0.00 90 1015.5
20260906150140 53 31 0.0 1.0 0.00 0.00 0.00 90 1015.5
20260906145634 53 31 0.0 1.0 0.00 0.00 0.00 90 1015.5
20260906145134 53 31 0.0 1.0 0.00 0.00 0.00 90 1015.5
20260906144634 53 30 0.0 0.0 0.00 0.00 0.00 90 1015.5
20260906144132 53 31 0.0 0.0 0.00 0.00 0.00 90 1015.5
20260906143925 53 31 0.0 1.0 0.00 0.00 0.00 90 1015.5
20260906143137 53 31 0.0 1.0 0.00 0.00 0.00 89 1015.5
20260906142624 53 31 1.0 3.0 0.00 0.00 0.00 89 1015.4
20260906142121 53 31 1.0 3.0 0.00 0.00 0.00 89 1015.4
20260906141853 53 9 1.0 2.0 0.00 0.00 0.00 89 1015.4
20260906141135 53 351 1.0 2.0 0.00 0.00 0.00 89 1015.4
20260906140351 53 246 0.0 1.0 0.00 0.00 0.00 89 1015.4
20260906135609 53 246 1.0 2.0 0.00 0.00 0.00 89 1015.4
20260906135102 53 246 1.0 3.0 0.00 0.00 0.00 89 1015.4
20260906134601 53 246 1.0 3.0 0.00 0.00 0.00 89 1015.4
20260906134101 53 236 0.0 2.0 0.00 0.00 0.00 89 1015.1
20260906133603 53 344 0.0 1.0 0.00 0.00 0.00 89 1015.1
20260906133110 53 344 0.0 0.0 0.00 0.00 0.00 88 1015.1
20260906132827 53 344 0.0 0.0 0.00 0.00 0.00 88 1015.0
20260906132046 53 344 0.0 1.0 0.00 0.00 0.00 88 1015.0
20260906131524 53 344 0.0 1.0 0.00 0.00 0.00 88 1015.0
20260906131015 53 344 0.0 1.0 0.00 0.00 0.00 88 1015.1
20260906130512 53 344 1.0 2.0 0.00 0.00 0.00 88 1015.1
20260906130010 53 344 1.0 2.0 0.00 0.00 0.00 88 1015.1
20260906125512 53 359 1.0 2.0 0.00 0.00 0.00 88 1015.2
20260906125007 53 359 1.0 2.0 0.00 0.00 0.00 88 1015.2
20260906124744 53 348 1.0 2.0 0.00 0.00 0.00 88 1015.2
20260906124002 53 319 0.0 2.0 0.00 0.00 0.00 88 1015.4
20260906123440 53 221 0.0 1.0 0.00 0.00 0.00 88 1015.4
20260906122934 53 221 0.0 1.0 0.00 0.00 0.00 88 1015.4
20260906122433 53 221 0.0 1.0 0.00 0.00 0.00 88 1015.3
20260906121931 53 221 1.0 2.0 0.00 0.00 0.00 88 1015.3
20260906121429 53 221 1.0 4.0 0.00 0.00 0.00 88 1015.3
20260906120927 53 221 2.0 4.0 0.00 0.00 0.00 88 1015.4
20260906120418 53 240 2.0 3.0 0.00 0.00 0.00 88 1015.4
20260906115904 53 226 1.0 3.0 0.00 0.00 0.00 88 1015.4
20260906115402 53 254 2.0 3.0 0.00 0.00 0.00 88 1015.4
20260906114905 53 240 2.0 4.0 0.00 0.00 0.00 88 1015.4
20260906114408 53 210 2.0 4.0 0.00 0.00 0.00 88 1015.4
20260906113903 54 210 3.0 4.0 0.00 0.00 0.00 88 1015.5
20260906113403 54 218 2.0 4.0 0.00 0.00 0.00 88 1015.5
20260906113151 54 219 2.0 4.0 0.00 0.00 0.00 88 1015.5
20260906112403 54 217 2.0 4.0 0.00 0.00 0.00 88 1015.6
20260906112153 54 231 2.0 4.0 0.00 0.00 0.00 89 1015.6
20260906111401 54 210 2.0 4.0 0.00 0.00 0.00 88 1015.6
20260906110904 54 233 2.0 4.0 0.00 0.00 0.00 89 1015.6
20260906110401 54 235 2.0 4.0 0.00 0.00 0.00 89 1015.6
20260906105939 54 223 2.0 4.0 0.00 0.00 0.00 89 1015.6
20260906104905 54 226 1.0 2.0 0.00 0.00 0.00 89 1015.5
20260906104405 54 227 1.0 2.0 0.00 0.00 0.00 89 1015.5
20260906103906 54 227 1.0 3.0 0.00 0.00 0.00 89 1015.4
20260906103403 54 231 1.0 3.0 0.00 0.00 0.00 89 1015.4
20260906102902 54 236 1.0 3.0 0.00 0.00 0.00 89 1015.4
20260906102400 54 216 1.0 3.0 0.00 0.00 0.00 89 1015.5
20260906101858 54 227 1.0 3.0 0.00 0.01 0.00 89 1015.5
20260906101358 54 245 0.0 2.0 0.00 0.01 0.00 89 1015.5
20260906100900 54 28 0.0 0.0 0.00 0.01 0.00 89 1015.4
20260906100630 54 28 0.0 0.0 0.00 0.01 0.00 89 1015.4
20260906095834 54 28 0.0 0.0 0.00 0.01 0.00 89 1015.4
20260906095338 54 28 0.0 1.0 0.00 0.01 0.00 88 1015.2
20260906094834 54 28 1.0 2.0 0.00 0.01 0.00 88 1015.2
20260906094332 54 28 1.0 3.0 0.00 0.01 0.00 88 1015.2
20260906094110 54 9 2.0 3.0 0.00 0.01 0.00 88 1015.1
20260906093318 54 359 2.0 3.0 0.00 0.01 0.00 88 1015.1
20260906092818 54 9 1.0 3.0 0.00 0.01 0.00 88 1015.1
20260906092316 54 348 1.0 3.0 0.00 0.01 0.00 88 1015.5
20260906091808 54 253 1.0 3.0 0.00 0.01 0.00 88 1015.5
20260906091603 54 244 0.0 2.0 0.00 0.01 0.00 87 1015.5
20260906090807 54 245 0.0 2.0 0.00 0.01 0.00 87 1015.5
20260906090545 54 129 0.0 0.0 0.00 0.01 0.00 86 1015.5
20260906085802 54 129 0.0 1.0 0.00 0.01 0.00 85 1015.5
20260906085307 54 129 0.0 2.0 0.00 0.01 0.00 85 1015.5
20260906084755 54 129 1.0 2.0 0.00 0.01 0.00 85 1015.5
20260906084250 54 129 0.0 2.0 0.00 0.01 0.00 85 1015.5
20260906083753 54 48 0.0 1.0 0.00 0.01 0.00 85 1015.4
20260906083246 54 48 0.0 0.0 0.00 0.01 0.00 85 1015.4
20260906082745 54 48 0.0 1.0 0.00 0.01 0.00 85 1015.4
20260906082238 54 48 1.0 2.0 0.00 0.01 0.00 85 1015.4
20260906081737 54 48 1.0 2.0 0.00 0.01 0.00 85 1015.4
20260906081523 54 359 0.0 1.0 0.00 0.01 0.00 85 1015.4
20260906081023 55 355 0.0 1.0 0.00 0.01 0.00 85 1015.4
20260906080231 55 355 0.0 1.0 0.00 0.01 0.00 85 1015.4
20260906075730 55 355 0.0 1.0 0.00 0.01 0.00 85 1015.4
20260906075231 55 355 0.0 2.0 0.00 0.01 0.00 84 1015.5
20260906074728 55 355 0.0 2.0 0.00 0.01 0.00 84 1015.5
20260906074230 55 359 0.0 1.0 0.00 0.01 0.00 84 1015.5
20260906073707 55 359 0.0 1.0 0.00 0.01 0.00 85 1015.5
20260906073209 55 359 0.0 2.0 0.00 0.01 0.00 85 1015.5
20260906072654 55 359 0.0 2.0 0.00 0.01 0.00 85 1015.5
20260906072147 55 359 0.0 1.0 0.00 0.01 0.00 85 1015.5
20260906071917 55 359 0.0 0.0 0.00 0.01 0.00 84 1015.5
20260906071129 55 359 0.0 1.0 0.00 0.01 0.00 84 1015.6
20260906070913 55 359 1.0 2.0 0.00 0.01 0.00 84 1015.6
20260906070132 56 359 1.0 2.0 0.00 0.01 0.00 84 1015.6
20260906065631 56 359 0.0 1.0 0.00 0.01 0.01 84 1015.6
20260906065133 56 359 0.0 0.0 0.00 0.01 0.01 83 1015.6
20260906064634 56 359 0.0 1.0 0.00 0.01 0.01 83 1015.6
20260906064110 56 359 1.0 2.0 0.00 0.01 0.01 83 1015.6
20260906063900 56 359 1.0 3.0 0.00 0.01 0.01 83 1015.6
20260906063103 56 359 1.0 3.0 0.00 0.01 0.01 83 1015.6
20260906062600 56 13 1.0 3.0 0.00 0.01 0.01 84 1015.7
20260906062100 56 22 0.0 1.0 0.00 0.01 0.01 83 1015.7
20260906061600 56 22 0.0 2.0 0.00 0.01 0.01 83 1015.7
20260906061054 56 22 1.0 3.0 0.00 0.01 0.01 83 1015.7
20260906060548 56 22 2.0 5.0 0.00 0.01 0.01 82 1015.7
20260906060032 56 359 3.0 6.0 0.00 0.01 0.01 82 1015.7
20260906055532 56 9 2.0 6.0 0.00 0.01 0.01 80 1015.5
20260906055326 57 249 0.0 1.0 0.00 0.01 0.01 80 1015.5
20260906054544 57 249 0.0 1.0 0.00 0.01 0.01 80 1015.5
20260906054029 57 249 1.0 1.0 0.00 0.01 0.01 80 1015.6
20260906053530 57 249 0.0 1.0 0.00 0.01 0.01 80 1015.6
20260906053028 58 238 0.0 1.0 0.00 0.01 0.01 79 1015.6
20260906052819 58 238 0.0 0.0 0.00 0.01 0.01 78 1015.8
20260906052034 58 238 0.0 1.0 0.00 0.01 0.01 77 1015.8
20260906051529 58 238 1.0 2.0 0.00 0.01 0.01 77 1015.8
20260906051032 58 238 2.0 3.0 0.00 0.01 0.01 77 1015.8
20260906050818 58 236 2.0 3.0 0.00 0.01 0.01 77 1015.8
20260906050009 59 220 1.0 3.0 0.00 0.01 0.01 77 1015.8
20260906045504 58 239 0.0 2.0 0.00 0.01 0.01 77 1015.9
20260906045021 59 221 0.0 1.0 0.00 0.01 0.01 76 1015.9
20260906044015 59 221 0.0 1.0 0.00 0.01 0.01 74 1015.8
20260906043445 60 221 1.0 2.0 0.00 0.01 0.01 75 1015.8
20260906042936 60 221 1.0 2.0 0.00 0.01 0.01 74 1015.8
20260906042438 60 217 1.0 2.0 0.00 0.01 0.01 74 1015.9
20260906041928 60 217 1.0 3.0 0.00 0.01 0.01 73 1015.9
20260906041429 60 218 1.0 3.0 0.00 0.01 0.01 73 1015.9
20260906040942 60 349 0.0 1.0 0.00 0.01 0.01 71 1015.7
20260906035902 60 349 1.0 2.0 0.00 0.01 0.01 70 1015.7
20260906035403 61 344 1.0 2.0 0.00 0.01 0.01 69 1015.7
20260906034907 61 221 0.0 1.0 0.00 0.01 0.01 69 1015.7
20260906034417 61 209 1.0 2.0 0.00 0.01 0.01 68 1015.7
20260906033849 61 209 1.0 2.0 0.00 0.01 0.01 67 1015.6
20260906033343 61 290 1.0 2.0 0.00 0.01 0.01 66 1015.6
20260906032839 62 280 0.0 2.0 0.00 0.01 0.01 67 1015.6
20260906032337 62 58 1.0 2.0 0.00 0.01 0.01 62 1015.5
20260906031836 62 58 1.0 3.0 0.00 0.01 0.01 62 1015.5
20260906031631 63 4 1.0 3.0 0.00 0.01 0.01 62 1015.5
20260906030836 63 288 1.0 2.0 0.00 0.01 0.01 59 1015.5
20260906030338 64 288 1.0 3.0 0.00 0.01 0.01 59 1015.5
20260906025924 64 288 1.0 3.0 0.00 0.01 0.01 59 1015.5
20260906024832 65 73 2.0 3.0 0.00 0.02 0.01 56 1015.5
20260906024335 65 321 3.0 4.0 0.00 0.03 0.01 55 1015.5
20260906023817 65 300 2.0 4.0 0.00 0.03 0.01 54 1015.5
20260906023316 65 296 1.0 3.0 0.00 0.03 0.01 55 1015.5
20260906022824 65 265 1.0 3.0 0.00 0.04 0.01 56 1015.5
20260906022555 65 346 0.0 1.0 0.00 0.04 0.01 56 1015.4
20260906021804 65 346 0.0 2.0 0.00 0.04 0.01 55 1015.4
20260906021306 65 346 1.0 3.0 0.00 0.04 0.01 55 1015.4
20260906020808 65 346 2.0 3.0 0.00 0.04 0.01 55 1015.5
20260906020310 66 359 2.0 3.0 0.00 0.04 0.01 51 1015.5
20260906015806 66 9 1.0 3.0 0.00 0.04 0.01 51 1015.5
20260906015307 67 21 1.0 2.0 0.00 0.04 0.01 51 1015.5
20260906014755 67 4 2.0 3.0 0.00 0.04 0.01 49 1015.5
20260906014558 67 4 2.0 4.0 0.00 0.04 0.01 48 1015.5
20260906013741 67 359 2.0 4.0 0.00 0.04 0.01 50 1015.5
20260906013238 67 355 2.0 4.0 0.00 0.04 0.01 49 1015.5
20260906012732 67 359 3.0 5.0 0.00 0.04 0.01 50 1015.5
20260906012226 68 9 4.0 6.0 0.00 0.04 0.01 52 1015.4
20260906011723 68 20 4.0 6.0 0.00 0.04 0.01 50 1015.4
20260906011217 69 359 3.0 5.0 0.00 0.04 0.01 49 1015.4
20260906010717 69 348 3.0 4.0 0.00 0.04 0.01 43 1015.3
20260906010218 69 331 3.0 5.0 0.00 0.04 0.01 42 1015.3
20260906005712 69 329 3.0 5.0 0.00 0.04 0.01 42 1015.3
20260906005213 69 323 3.0 4.0 0.00 0.04 0.01 43 1015.2
20260906004712 69 331 3.0 4.0 0.00 0.04 0.01 42 1015.2
20260906004209 69 333 4.0 5.0 0.00 0.04 0.01 44 1015.2
20260906003710 69 359 3.0 5.0 0.00 0.04 0.01 45 1015.3
20260906003211 69 334 2.0 4.0 0.00 0.04 0.01 45 1015.3
20260906002712 69 335 2.0 4.0 0.00 0.04 0.01 44 1015.3
20260906002212 68 46 3.0 5.0 0.00 0.04 0.01 48 1015.3
20260906001711 68 4 4.0 6.0 0.00 0.04 0.01 50 1015.3
20260906001205 68 4 4.0 6.0 0.00 0.04 0.01 50 1015.3
20260906000705 68 359 5.0 9.0 0.00 0.04 0.01 51 1015.2
20260906000204 68 9 5.0 9.0 0.00 0.04 0.01 52 1015.2
20260905235955 68 30 6.0 11.0 0.00 0.04 0.01 51 1015.2
20260905235204 68 344 7.0 13.0 0.00 0.04 0.01 55 1015.3
20260905234954 68 359 8.0 13.0 0.00 0.04 0.01 55 1015.3
20260905234209 68 4 8.0 11.0 0.00 0.04 0.01 57 1015.3
20260905233953 68 351 8.0 11.0 0.00 0.04 0.01 55 1015.3
20260905233202 69 9 6.0 10.0 0.00 0.04 0.01 53 1015.3
20260905232702 69 350 5.0 7.0 0.00 0.04 0.01 52 1015.3
20260905232200 69 21 5.0 7.0 0.00 0.04 0.01 50 1015.3
20260905231701 69 351 4.0 7.0 0.00 0.04 0.01 51 1015.3
20260905231203 69 30 4.0 6.0 0.00 0.04 0.01 51 1015.3
20260905230703 69 327 3.0 5.0 0.00 0.04 0.01 50 1015.4
20260905230503 69 334 2.0 4.0 0.00 0.04 0.01 52 1015.4
20260905225700 68 325 3.0 6.0 0.00 0.04 0.01 52 1015.4
20260905225457 68 332 4.0 7.0 0.00 0.04 0.01 54 1015.4
20260905224656 67 9 5.0 9.0 0.00 0.04 0.01 57 1015.4
20260905224147 67 30 6.0 10.0 0.00 0.04 0.01 56 1015.4
20260905223637 67 347 6.0 10.0 0.00 0.04 0.01 57 1015.5
20260905223139 67 333 4.0 9.0 0.00 0.04 0.01 59 1015.5
20260905222638 67 337 3.0 5.0 0.00 0.04 0.01 56 1015.7
20260905222140 67 9 3.0 5.0 0.00 0.04 0.01 56 1015.7
20260905221640 67 328 3.0 4.0 0.00 0.04 0.01 55 1015.7
20260905221446 67 319 3.0 5.0 0.00 0.04 0.01 56 1016.0
20260905220634 67 328 4.0 5.0 0.00 0.04 0.01 55 1016.0
20260905220134 67 341 4.0 5.0 0.00 0.04 0.01 55 1016.0
20260905215635 67 15 4.0 6.0 0.00 0.04 0.01 56 1016.0
20260905215132 67 35 4.0 6.0 0.00 0.04 0.01 60 1016.0
20260905214634 67 13 5.0 6.0 0.00 0.04 0.01 58 1016.0
20260905214120 67 15 5.0 6.0 0.00 0.04 0.01 56 1016.0
20260905213614 67 29 4.0 6.0 0.00 0.04 0.01 55 1016.0
20260905213112 67 9 4.0 5.0 0.00 0.04 0.01 55 1016.0
20260905212613 66 37 4.0 5.0 0.00 0.04 0.01 57 1016.1
20260905212114 66 18 4.0 5.0 0.00 0.04 0.01 57 1016.1
20260905211614 66 355 3.0 5.0 0.00 0.04 0.01 60 1016.1
20260905211423 66 348 3.0 6.0 0.00 0.04 0.01 60 1016.3
20260905210610 66 359 4.0 6.0 0.00 0.04 0.01 62 1016.3
20260905210420 66 9 2.0 6.0 0.00 0.04 0.01 61 1016.3
20260905205610 67 311 2.0 4.0 0.00 0.04 0.01 57 1016.4
20260905205105 66 250 3.0 5.0 0.00 0.04 0.01 56 1016.4
20260905204553 66 177 3.0 5.0 0.00 0.04 0.01 58 1016.4
20260905204041 66 232 2.0 4.0 0.00 0.04 0.01 57 1016.5
20260905203531 66 215 3.0 6.0 0.00 0.04 0.01 57 1016.5